DHL748 EDDF-KDFW

Flight info

Callsign DHL748
Flight time N/A
Altitude 34000
Route OBOKA3W OBOKA Z28 DIBIR DCT BUDIP DCT MIMVA DCT GETNO DCT NIBOG DCT PIKIL/M084F350 DCT 56N020W 55N030W 53N040W 51N050W DCT ALLRY/N0483F360 DCT ANCER DCT OXASA/N0486F380 DCT NOTAP DCT ODAXY DCT OBK DCT KG66K DCT KK57I DCT KK42G DCT MLC DCT AXXEE SEEVR4
Aircraft A346/H-SDE2E3FGHIJ3J4J5M1RWXY/LB1D1

Departure

Time 2026-05-08 05:48
Airport Frankfurt Main Airport (EDDF)

Arrival

Time N/A
Airport Dallas Fort Worth International Airport (KDFW)
Time Latitude Longitude Altitude Speed Heading
2026-05-08 05:41 50.04663 8.56379 367 ft 0 kts 226°
2026-05-08 05:42 50.04663 8.56378 368 ft 0 kts 226°
2026-05-08 05:42 50.04653 8.56356 371 ft 5 kts 238°
2026-05-08 05:42 50.04629 8.56270 367 ft 12 kts 248°
2026-05-08 05:43 50.04587 8.56104 368 ft 18 kts 250°
2026-05-08 05:43 50.04500 8.55949 370 ft 19 kts 200°
2026-05-08 05:43 50.04364 8.55923 370 ft 20 kts 166°
2026-05-08 05:43 50.04220 8.55922 367 ft 22 kts 187°
2026-05-08 05:44 50.04099 8.56037 368 ft 20 kts 100°
2026-05-08 05:44 50.04122 8.56258 365 ft 18 kts 70°
2026-05-08 05:44 50.04168 8.56450 366 ft 19 kts 69°
2026-05-08 05:44 50.04219 8.56657 372 ft 21 kts 69°
2026-05-08 05:45 50.04272 8.56876 371 ft 22 kts 69°
2026-05-08 05:45 50.04327 8.57106 373 ft 23 kts 69°
2026-05-08 05:45 50.04387 8.57352 373 ft 25 kts 69°
2026-05-08 05:45 50.04450 8.57613 375 ft 26 kts 69°
2026-05-08 05:46 50.04517 8.57885 374 ft 28 kts 69°
2026-05-08 05:46 50.04587 8.58175 377 ft 29 kts 70°
2026-05-08 05:46 50.04648 8.58457 380 ft 19 kts 82°
2026-05-08 05:46 50.04572 8.58587 381 ft 18 kts 158°
2026-05-08 05:47 50.04488 8.58584 382 ft 11 kts 258°
2026-05-08 05:47 50.04457 8.58465 384 ft 13 kts 240°
2026-05-08 05:47 50.04419 8.58320 377 ft 16 kts 249°
2026-05-08 05:47 50.04300 8.57805 372 ft 88 kts 249°
2026-05-08 05:48 50.04007 8.56568 368 ft 152 kts 249°
2026-05-08 05:48 50.03565 8.54740 395 ft 201 kts 250°
2026-05-08 05:48 50.03044 8.52615 1098 ft 207 kts 251°
2026-05-08 05:48 50.02511 8.50444 1925 ft 214 kts 251°
2026-05-08 05:49 50.02173 8.49093 2457 ft 203 kts 251°